Location: Chin
(49.7667°N, 112.4500°W)
Time: 11:59:53
(UTC+00:00)

Envisat - Pass Details

Date: 27 November 2021
Orbit: 764 x 766 km, 98.2° (Epoch: 25 January)

Event Time Altitude Azimuth Distance (km) Brightness Sun altitude
Rises 13:11:22 0° 10° (N) 3,247 6.2 -17.0°
Reaches altitude 10° 13:13:43 10° 7° (N) 2,316 5.4 -16.6°
Maximum altitude 13:18:41 55° 290° (WNW) 922 3.0 -15.9°
Drops below altitude 10° 13:23:38 10° 214° (SW) 2,300 5.3 -15.1°
Sets 13:25:57 0° 210° (SSW) 3,221 6.1 -14.7°
